TimePST,TemperatureF,Dew PointF,Humidity,Sea Level PressureIn,VisibilityMPH,Wind Direction,Wind SpeedMPH,Gust SpeedMPH,PrecipitationIn,Events,Conditions,WindDirDegrees,DateUTC
12:53 AM,34.0,30.0,85,30.31,10.0,WSW,8.1,-,N/A,,Clear,240,2013-03-04 08:53:00
1:53 AM,33.1,28.9,85,30.30,10.0,SW,6.9,-,N/A,,Clear,230,2013-03-04 09:53:00
2:53 AM,30.0,27.0,88,30.30,10.0,North,-9999.0,-,N/A,,Clear,0,2013-03-04 10:53:00
3:53 AM,32.0,28.0,85,30.29,10.0,North,-9999.0,-,N/A,,Clear,0,2013-03-04 11:53:00
4:53 AM,30.9,27.0,85,30.29,10.0,North,-9999.0,-,N/A,,Clear,0,2013-03-04 12:53:00
5:53 AM,30.9,28.9,92,30.27,10.0,North,-9999.0,-,N/A,,Clear,0,2013-03-04 13:53:00
6:53 AM,30.0,28.0,92,30.26,10.0,North,-9999.0,-,N/A,,Scattered Clouds,0,2013-03-04 14:53:00
7:11 AM,34.0,28.9,82,30.25,10.0,North,-9999.0,-,N/A,,Mostly Cloudy,0,2013-03-04 15:11:00
7:53 AM,35.1,30.9,85,30.26,10.0,SW,4.6,-,N/A,,Overcast,220,2013-03-04 15:53:00
8:49 AM,37.4,32.0,81,30.24,10.0,Calm,Calm,-,N/A,,Overcast,0,2013-03-04 16:49:00
8:53 AM,37.9,32.0,79,30.25,10.0,Calm,Calm,-,N/A,,Overcast,0,2013-03-04 16:53:00
9:49 AM,42.8,35.6,76,30.23,10.0,East,6.9,-,N/A,,Overcast,100,2013-03-04 17:49:00
9:53 AM,42.1,36.0,79,30.24,10.0,East,5.8,-,N/A,,Overcast,90,2013-03-04 17:53:00
10:27 AM,45.0,35.1,68,30.22,10.0,East,6.9,-,N/A,,Partly Cloudy,100,2013-03-04 18:27:00
10:53 AM,43.0,33.1,68,30.22,10.0,East,10.4,-,N/A,,Clear,100,2013-03-04 18:53:00
11:25 AM,44.1,34.0,68,30.20,10.0,Variable,6.9,-,N/A,,Mostly Cloudy,0,2013-03-04 19:25:00
11:37 AM,45.0,36.0,71,30.19,10.0,Variable,6.9,-,N/A,,Scattered Clouds,0,2013-03-04 19:37:00
11:53 AM,43.0,35.1,74,30.20,10.0,ENE,6.9,-,N/A,,Scattered Clouds,70,2013-03-04 19:53:00
12:06 PM,43.0,35.1,74,30.19,10.0,East,9.2,-,N/A,,Mostly Cloudy,90,2013-03-04 20:06:00
12:53 PM,42.1,34.0,73,30.17,10.0,East,10.4,-,N/A,,Overcast,90,2013-03-04 20:53:00
1:53 PM,43.0,35.1,74,30.14,10.0,East,10.4,-,N/A,,Overcast,90,2013-03-04 21:53:00
2:13 PM,44.1,34.0,68,30.12,10.0,ENE,8.1,-,N/A,,Scattered Clouds,60,2013-03-04 22:13:00
2:53 PM,45.0,35.1,68,30.11,10.0,East,8.1,-,N/A,,Clear,90,2013-03-04 22:53:00
3:53 PM,45.0,33.1,63,30.07,10.0,East,9.2,-,N/A,,Clear,90,2013-03-04 23:53:00
4:53 PM,44.1,34.0,68,30.05,10.0,East,8.1,-,N/A,,Clear,80,2013-03-05 00:53:00
5:53 PM,42.1,35.1,76,30.04,10.0,ENE,3.5,-,N/A,,Clear,70,2013-03-05 01:53:00
6:53 PM,37.9,33.1,83,30.02,10.0,Calm,Calm,-,N/A,,Clear,0,2013-03-05 02:53:00
7:53 PM,33.1,30.0,89,30.00,10.0,Calm,Calm,-,N/A,,Clear,0,2013-03-05 03:53:00
8:53 PM,35.1,32.0,89,30.00,10.0,SW,5.8,-,N/A,,Clear,220,2013-03-05 04:53:00
9:53 PM,33.1,30.9,92,29.99,10.0,Calm,Calm,-,N/A,,Clear,0,2013-03-05 05:53:00
11:53 PM,36.0,32.0,86,29.95,10.0,SW,8.1,-,N/A,,Clear,230,2013-03-05 07:53:00